This is the latest recevied weather packets stored in our database for station/object DL1NER. If no packets are shown the sender has not sent any weather packets the latest 1 day(s).
| Time | Temp. | Humidity | Pressure | Rain* | Wind** | Luminosity | Snow |
|---|---|---|---|---|---|---|---|
| 1778081410 | 18.33° C | 56% | 1005.2 hPa | 0 mm | - | 0 W/m² | - |
| 1778080210 | 18.33° C | 55% | 1004.9 hPa | 0 mm | - | 0 W/m² | - |
| 1778079611 | 18.89° C | 55% | 1004.9 hPa | 0 mm | - | 0 W/m² | - |
| 1778078411 | 18.89° C | 53% | 1004.8 hPa | 0 mm | - | 0 W/m² | - |
| 1778074811 | 19.44° C | 53% | 1004.7 hPa | 0 mm | - | 0 W/m² | - |
| 1778074211 | 19.44° C | 54% | 1004.8 hPa | 0 mm | - | 0 W/m² | - |
| 1778071810 | 19.44° C | 52% | 1005.3 hPa | 0 mm | - | 0 W/m² | - |
| 1778069414 | 19.44° C | 54% | 1005.6 hPa | 0 mm | - | 0 W/m² | - |
| 1778068814 | 19.44° C | 53% | 1005.6 hPa | 0 mm | - | 0 W/m² | - |
| 1778068214 | 19.44° C | 53% | 1005.7 hPa | 0 mm | - | 0 W/m² | - |
| 1778067614 | 19.44° C | 53% | 1005.7 hPa | 0 mm | - | 0 W/m² | - |
| 1778066414 | 19.44° C | 61% | 1005.8 hPa | 0 mm | - | 0 W/m² | - |
| 1778065814 | 18.33° C | 60% | 1005.9 hPa | 0 mm | - | 0 W/m² | - |
| 1778064614 | 18.33° C | 64% | 1006 hPa | 0 mm | - | 0 W/m² | - |
| 1778062814 | 18.89° C | 63% | 1006.1 hPa | 0 mm | - | 0 W/m² | - |
| 1778062214 | 18.33° C | 63% | 1006.2 hPa | 0 mm | - | 0 W/m² | - |
| 1778060414 | 17.78° C | 67% | 1006.2 hPa | 0 mm | - | 0 W/m² | - |
| 1778058613 | 16.67° C | 70% | 1006.3 hPa | 0 mm | - | 0 W/m² | - |
| 1778057414 | 17.22° C | 72% | 1006.4 hPa | 0 mm | - | 0 W/m² | - |
| 1778056213 | 17.78° C | 69% | 1006.3 hPa | 0 mm | - | 0 W/m² | - |
| 1778055614 | 17.78° C | 69% | 1006.4 hPa | 0 mm | - | 0 W/m² | - |
| 1778055013 | 16.67° C | 75% | 1006.4 hPa | 0 mm | - | 0 W/m² | - |
| 1778054413 | 16.11° C | 78% | 1006.4 hPa | 0 mm | - | 0 W/m² | - |
| 1778053813 | 14.44° C | 79% | 1006.4 hPa | 0 mm | - | 0 W/m² | - |
| 1778053213 | 14.44° C | 80% | 1006.4 hPa | 0 mm | - | 0 W/m² | - |
* Rain latest hour (hover to see other rain measurements)
** Current wind speed in m/s (hover to see current wind gust speed)